Hourly Weather Kindia

Today, 1 November, Sunday

Time Temperature Precipitation Wind Pressure Humidity
00:00 +25°C° 0 mm 2 mps 706 mmHg 32%
01:00 +25°C° 0 mm 2 mps 705 mmHg 32%
02:00 +24°C° 0 mm 3 mps 705 mmHg 31%
03:00 +24°C° 0 mm 3 mps 705 mmHg 31%
04:00 +24°C° 0 mm 3 mps 705 mmHg 31%
05:00 +24°C° 0 mm 3 mps 705 mmHg 33%
06:00 +23°C° 0 mm 2 mps 706 mmHg 35%
07:00 +23°C° 0 mm 2 mps 706 mmHg 37%
08:00 +26°C° 0 mm 3 mps 707 mmHg 33%
09:00 +29°C° 0 mm 3 mps 707 mmHg 30%
10:00 +31°C° 0 mm 3 mps 708 mmHg 26%
11:00 +34°C° 0 mm 3 mps 707 mmHg 23%
12:00 +36°C° 0 mm 3 mps 707 mmHg 21%
13:00 +37°C° 0 mm 3 mps 706 mmHg 19%
14:00 +37°C° 0 mm 3 mps 706 mmHg 19%
15:00 +37°C° 0 mm 3 mps 705 mmHg 20%
16:00 +36°C° 0 mm 4 mps 704 mmHg 20%
17:00 +34°C° 0 mm 3 mps 704 mmHg 23%
18:00 +31°C° 0 mm 3 mps 704 mmHg 26%
19:00 +28°C° 0 mm 2 mps 704 mmHg 28%
20:00 +28°C° 0 mm 3 mps 705 mmHg 29%
21:00 +27°C° 0 mm 3 mps 706 mmHg 29%
22:00 +26°C° 0 mm 3 mps 706 mmHg 30%
23:00 +26°C° 0 mm 3 mps 706 mmHg 29%

Tomorrow, 2 November, Monday

Time Temperature Precipitation Wind Pressure Humidity
00:00 +25°C° 0 mm 3 mps 706 mmHg 29%
01:00 +25°C° 0 mm 3 mps 705 mmHg 28%
02:00 +24°C° 0 mm 3 mps 705 mmHg 29%
03:00 +24°C° 0 mm 3 mps 705 mmHg 30%
04:00 +24°C° 0 mm 3 mps 705 mmHg 30%
05:00 +24°C° 0 mm 3 mps 706 mmHg 33%
06:00 +24°C° 0 mm 2 mps 706 mmHg 35%
07:00 +24°C° 0 mm 2 mps 707 mmHg 38%
08:00 +26°C° 0 mm 2 mps 707 mmHg 34%
09:00 +29°C° 0 mm 3 mps 708 mmHg 29%
10:00 +33°C° 0 mm 3 mps 709 mmHg 25%
11:00 +34°C° 0 mm 3 mps 708 mmHg 23%
12:00 +36°C° 0 mm 3 mps 707 mmHg 21%
13:00 +38°C° 0 mm 3 mps 707 mmHg 19%
14:00 +37°C° 0 mm 3 mps 706 mmHg 19%
15:00 +37°C° 0 mm 4 mps 706 mmHg 20%
16:00 +37°C° 0 mm 4 mps 705 mmHg 21%
17:00 +34°C° 0 mm 3 mps 705 mmHg 24%
18:00 +31°C° 0 mm 3 mps 705 mmHg 27%
19:00 +29°C° 0 mm 2 mps 705 mmHg 30%
20:00 +28°C° 0 mm 3 mps 706 mmHg 30%
21:00 +28°C° 0 mm 3 mps 706 mmHg 31%
22:00 +27°C° 0 mm 3 mps 707 mmHg 31%
23:00 +27°C° 0 mm 3 mps 706 mmHg 32%

Day after tomorrow, 3 November, Tuesday

Time Temperature Precipitation Wind Pressure Humidity
00:00 +26°C° 0 mm 3 mps 706 mmHg 32%
01:00 +26°C° 0 mm 3 mps 706 mmHg 32%
02:00 +25°C° 0 mm 3 mps 706 mmHg 33%
03:00 +25°C° 0 mm 3 mps 706 mmHg 33%
04:00 +24°C° 0 mm 3 mps 706 mmHg 34%
05:00 +24°C° 0 mm 3 mps 706 mmHg 36%
06:00 +24°C° 0 mm 3 mps 706 mmHg 38%
07:00 +24°C° 0 mm 3 mps 707 mmHg 40%
08:00 +27°C° 0 mm 3 mps 707 mmHg 36%
09:00 +29°C° 0 mm 3 mps 708 mmHg 32%
10:00 +33°C° 0 mm 3 mps 708 mmHg 27%
11:00 +35°C° 0 mm 3 mps 708 mmHg 25%
12:00 +36°C° 0 mm 2 mps 707 mmHg 23%
13:00 +38°C° 0 mm 2 mps 706 mmHg 21%
14:00 +38°C° 0 mm 2 mps 706 mmHg 21%
15:00 +38°C° 0 mm 2 mps 705 mmHg 20%
16:00 +38°C° 0 mm 2 mps 705 mmHg 20%
17:00 +36°C° 0 mm 2 mps 705 mmHg 24%
18:00 +32°C° 0 mm 2 mps 705 mmHg 28%
19:00 +30°C° 0 mm 2 mps 705 mmHg 31%
20:00 +29°C° 0 mm 2 mps 706 mmHg 32%
21:00 +29°C° 0 mm 2 mps 706 mmHg 33%
22:00 +28°C° 0 mm 2 mps 707 mmHg 34%
23:00 +27°C° 0 mm 2 mps 706 mmHg 35%

4 November, Wednesday

Time Temperature Precipitation Wind Pressure Humidity
00:00 +26°C° 0 mm 2 mps 706 mmHg 35%
01:00 +26°C° 0 mm 2 mps 706 mmHg 36%
02:00 +25°C° 0 mm 2 mps 706 mmHg 36%
03:00 +25°C° 0 mm 2 mps 706 mmHg 37%
04:00 +25°C° 0 mm 2 mps 706 mmHg 37%
05:00 +25°C° 0 mm 2 mps 706 mmHg 39%
06:00 +25°C° 0 mm 2 mps 707 mmHg 41%
07:00 +24°C° 0 mm 2 mps 707 mmHg 43%
08:00 +28°C° 0 mm 3 mps 708 mmHg 37%
09:00 +31°C° 0 mm 3 mps 708 mmHg 30%
10:00 +35°C° 0 mm 3 mps 709 mmHg 24%
11:00 +36°C° 0 mm 3 mps 708 mmHg 23%
12:00 +37°C° 0 mm 3 mps 707 mmHg 21%
13:00 +39°C° 0 mm 3 mps 707 mmHg 19%
14:00 +38°C° 0 mm 3 mps 706 mmHg 19%
15:00 +38°C° 0 mm 3 mps 705 mmHg 20%
16:00 +37°C° 0 mm 3 mps 705 mmHg 20%
17:00 +35°C° 0 mm 3 mps 705 mmHg 23%
18:00 +32°C° 0 mm 2 mps 705 mmHg 26%
19:00 +30°C° 0 mm 2 mps 705 mmHg 28%
20:00 +29°C° 0 mm 2 mps 705 mmHg 29%
21:00 +29°C° 0 mm 1 mps 706 mmHg 29%
22:00 +28°C° 0 mm 1 mps 706 mmHg 30%
23:00 +27°C° 0 mm 1 mps 706 mmHg 31%

5 November, Thursday

Time Temperature Precipitation Wind Pressure Humidity
00:00 +27°C° 0 mm 1 mps 706 mmHg 33%
01:00 +26°C° 0 mm 1 mps 706 mmHg 34%
02:00 +25°C° 0 mm 1 mps 705 mmHg 35%
03:00 +25°C° 0 mm 1 mps 705 mmHg 36%
04:00 +24°C° 0 mm 1 mps 705 mmHg 37%
05:00 +24°C° 0 mm 1 mps 706 mmHg 39%
06:00 +25°C° 0 mm 1 mps 706 mmHg 40%
07:00 +25°C° 0 mm 1 mps 707 mmHg 42%
08:00 +28°C° 0 mm 1 mps 707 mmHg 37%
09:00 +31°C° 0 mm 1 mps 708 mmHg 32%
10:00 +35°C° 0 mm 2 mps 709 mmHg 27%
11:00 +36°C° 0 mm 2 mps 708 mmHg 24%
12:00 +38°C° 0 mm 3 mps 707 mmHg 21%
13:00 +39°C° 0 mm 3 mps 706 mmHg 19%
14:00 +38°C° 0 mm 4 mps 706 mmHg 18%
15:00 +38°C° 0 mm 4 mps 705 mmHg 18%
16:00 +37°C° 0 mm 4 mps 705 mmHg 17%
17:00 +35°C° 0 mm 4 mps 705 mmHg 19%
18:00 +33°C° 0 mm 3 mps 705 mmHg 22%
19:00 +30°C° 0 mm 3 mps 705 mmHg 24%
20:00 +29°C° 0 mm 3 mps 705 mmHg 24%
21:00 +28°C° 0 mm 3 mps 706 mmHg 25%
22:00 +28°C° 0 mm 3 mps 706 mmHg 26%
23:00 +27°C° 0 mm 3 mps 706 mmHg 26%

6 November, Friday

Time Temperature Precipitation Wind Pressure Humidity
00:00 +27°C° 0 mm 3 mps 706 mmHg 25%
01:00 +26°C° 0 mm 4 mps 705 mmHg 25%
02:00 +26°C° 0 mm 3 mps 705 mmHg 26%
03:00 +25°C° 0 mm 3 mps 705 mmHg 27%
04:00 +25°C° 0 mm 3 mps 705 mmHg 28%
05:00 +24°C° 0 mm 3 mps 705 mmHg 29%
06:00 +24°C° 0 mm 3 mps 706 mmHg 30%
07:00 +24°C° 0 mm 3 mps 706 mmHg 31%
08:00 +27°C° 0 mm 3 mps 707 mmHg 26%
09:00 +30°C° 0 mm 4 mps 707 mmHg 21%
10:00 +34°C° 0 mm 4 mps 708 mmHg 16%
11:00 +35°C° 0 mm 4 mps 708 mmHg 15%
12:00 +36°C° 0 mm 4 mps 707 mmHg 15%
13:00 +38°C° 0 mm 4 mps 706 mmHg 14%
14:00 +37°C° 0 mm 4 mps 706 mmHg 14%
15:00 +37°C° 0 mm 4 mps 705 mmHg 15%
16:00 +37°C° 0 mm 4 mps 705 mmHg 15%
17:00 +34°C° 0 mm 3 mps 705 mmHg 18%
18:00 +31°C° 0 mm 3 mps 705 mmHg 21%
19:00 +28°C° 0 mm 3 mps 705 mmHg 24%
20:00 +28°C° 0 mm 3 mps 705 mmHg 24%
21:00 +27°C° 0 mm 3 mps 706 mmHg 24%
22:00 +26°C° 0 mm 4 mps 706 mmHg 24%
23:00 +25°C° 0 mm 3 mps 706 mmHg 25%
Show more

We Need Your Consent

Meteoprog and our Service Providers may store and access personal data such as cookies, device identifiers or other similar technologies on your device and process such data to personalise content and ads, as well as provide social media features and to analyse the traffic.

  • Store and/or access information on your device

    Cookies, device identifiers or other information can be stored or accessed on your device for the purposes indicated above.

  • Personalised ads and content, ad and content measurement, audience insights, and products development

    Ads and content can be personalised based on a profile. More data can be added to better personalise ads and content. Ad and content performance can be measured. Insights about the audience who saw the ads and content can be derived. Such data can be used to develop or improve user’s experience, systems and software.

By clicking ‘I Agree’ you will allow the use of indicated cookies, device identifiers, web beacons or other similar technologies. Your settings can be changed in the browser on your device.

For certain purposes, legitimate interests may be relied on, rather than consent. You can read more about this in our Privacy and Cookie Policy.